Weather History for K0J4 - August, 2013

Change the Weather History Date:

Monday, August 12, 2013

  Actual Average (KCEW) Record (KCEW)
Temperature  
Mean Temperature 83 °F -  
Max Temperature 93 °F 92 °F 97 °F (1990)
Min Temperature 73 °F 68 °F 63 °F (1989)
Cooling Degree Days 18    
Growing Degree Days 33 (Base 50)    
Moisture  
Dew Point 74 °F    
Average Humidity 83    
Maximum Humidity 96    
Minimum Humidity 51    
Precipitation  
Precipitation 0.03 in - - ()
Sea Level Pressure  
Sea Level Pressure 30.10 in    
Wind  
Wind Speed 1 mph (North)    
Max Wind Speed 15 mph    
Max Gust Speed -    
Visibility 10 miles    
Events Rain , Thunderstorm    
Averages and records for this station are not official NWS values.
T = Trace of Precipitation, MM = Missing Value Source: NWS Daily Summary

Daily Weather History Graph

Daily Weather History Graph

Search for Another Location

Airport or City:

Trip Planner

Search our weather history database for the weather conditions in past years. The results will help you decide how hot, cold, wet, or windy it might be!

Date:

Astronomy

Aug. 12, 2013 Rise Set
Actual Time 6:09 AM CDT 7:30 PM CDT
Civil Twilight 5:43 AM CDT 7:56 PM CDT
Nautical Twilight 5:13 AM CDT 8:26 PM CDT
Astronomical Twilight 4:41 AM CDT 8:58 PM CDT
Moon 11:32 AM CDT (8/12) 10:51 PM CDT (8/12)
Length of Visible Light 14h 12m
Length of Day
13h 21m
Waxing Crescent, 31% of the Moon is Illuminated
Aug 12
Waxing Crescent
Aug 14
First Quarter
Aug 20
Full
Aug 28
Last Quarter
Sep 5
New

Hourly Weather History & Observations

Time (CDT) Temp. Heat Index Dew Point Humidity Pressure Visibility Wind Dir Wind Speed Gust Speed Precip Events Conditions
12:58 AM 75.9 °F - 73.9 °F 94% 30.14 in 10.0 mi Calm Calm - N/A   Clear
1:58 AM 75.9 °F - 73.9 °F 94% 30.13 in 10.0 mi Calm Calm - N/A   Clear
2:58 AM 75.0 °F - 73.9 °F 96% 30.12 in 10.0 mi Calm Calm - N/A   Clear
3:58 AM 75.0 °F - 73.0 °F 94% 30.12 in 10.0 mi Calm Calm - N/A   Clear
4:58 AM 73.9 °F - 72.0 °F 93% 30.12 in 10.0 mi Calm Calm - N/A   Clear
5:58 AM 73.9 °F - 72.0 °F 93% 30.13 in 10.0 mi Calm Calm - N/A   Clear
6:58 AM 75.9 °F - 73.0 °F 91% 30.13 in 10.0 mi Calm Calm - N/A   Clear
7:58 AM 81.0 °F 87.3 °F 75.9 °F 85% 30.13 in 10.0 mi Calm Calm - N/A   Clear
8:58 AM 84.9 °F 95.3 °F 77.0 °F 77% 30.14 in 10.0 mi Calm Calm - N/A   Partly Cloudy
9:58 AM 86.0 °F 93.8 °F 73.9 °F 67% 30.13 in 10.0 mi SSW 3.5 mph - N/A   Partly Cloudy
10:58 AM 89.1 °F 98.0 °F 73.9 °F 61% 30.13 in 10.0 mi Variable 3.5 mph - N/A   Clear
11:58 AM 90.0 °F 97.9 °F 73.0 °F 57% 30.12 in 10.0 mi SW 3.5 mph - N/A   Scattered Clouds
12:58 PM 91.0 °F 98.2 °F 72.0 °F 53% 30.09 in 10.0 mi Calm Calm - N/A   Clear
1:58 PM 93.9 °F 103.4 °F 73.0 °F 51% 30.07 in 10.0 mi NNE 4.6 mph - N/A   Partly Cloudy
2:03 PM 93.2 °F 102.4 °F 73.4 °F 52% 30.08 in 10.0 mi NNE 4.6 mph - N/A Thunderstorm Thunderstorm
2:42 PM 87.8 °F 97.6 °F 75.2 °F 66% 30.07 in 10.0 mi SSW 15.0 mph - N/A Thunderstorm Thunderstorm
2:58 PM 84.0 °F 92.6 °F 75.9 °F 76% 30.09 in 10.0 mi Variable 4.6 mph - N/A Thunderstorm Thunderstorm
3:42 PM 78.8 °F - 75.2 °F 89% 30.12 in 10.0 mi Variable 4.6 mph - 0.00 in Rain , Thunderstorm Light Rain
3:58 PM 77.0 °F - 73.0 °F 88% 30.10 in 10.0 mi Variable 3.5 mph - 0.00 in Thunderstorm Thunderstorm
4:02 PM 77.0 °F - 73.4 °F 89% 30.11 in 10.0 mi Calm Calm - N/A Thunderstorm Thunderstorm
4:54 PM 75.2 °F - 73.4 °F 94% 30.09 in 4.0 mi Calm Calm - 0.03 in Rain Light Rain
4:58 PM 75.9 °F - 73.9 °F 94% 30.08 in 4.0 mi Calm Calm - 0.03 in Rain Light Rain
5:56 PM 77.0 °F - 73.4 °F 89% 30.08 in 10.0 mi NNE 3.5 mph - 0.00 in   Partly Cloudy
5:58 PM 75.9 °F - 73.9 °F 94% 30.07 in 10.0 mi NNE 3.5 mph - 0.00 in   Partly Cloudy
6:58 PM 75.9 °F - 73.9 °F 94% 30.05 in 10.0 mi Calm Calm - N/A   Clear
7:58 PM 75.9 °F - 73.9 °F 94% 30.06 in 10.0 mi Calm Calm - N/A   Clear
8:58 PM 75.9 °F - 73.9 °F 94% 30.08 in 10.0 mi Calm Calm - N/A   Clear
9:58 PM 75.0 °F - 73.9 °F 96% 30.07 in 10.0 mi Calm Calm - N/A   Clear
10:58 PM 75.0 °F - 73.0 °F 94% 30.07 in 10.0 mi Calm Calm - N/A   Clear
11:58 PM 75.0 °F - 73.0 °F 94% 30.06 in 10.0 mi Calm Calm - N/A   Clear